Location: Kelshall
(52.0000°N, 0.0500°W)
Time: 00:09:55
(UTC+00:00)

Meteor 1-15 Rocket - Pass Details

Date: 18 January 2021
Orbit: 840 x 907 km, 81.2° (Epoch: 03 March)

Event Time Altitude Azimuth Distance (km) Brightness Sun altitude
Exits shadow 02:36:53 10° 62° (ENE) 2,489 7.2 -47.7°
Drops below altitude 10° 02:36:55 10° 62° (ENE) 2,492 7.2 -47.7°
Sets 02:41:29 0° 28° (NNE) 3,452 8.0 -47.1°
